THY6834 EKVG-EGPB

Flight info

Callsign THY6834
Flight time 1h 0m
Altitude 35000
Route ODEVA DCT NALAN DCT KOKAL DCT WAFIL
Aircraft B738/M-SDE2E3FGHIRWXY/LB1

Departure

Time 2026-05-08 13:50
Airport Vágar Airport (EKVG)

Arrival

Time 2026-05-08 14:50
Airport Sumburgh Airport (EGPB)
Time Latitude Longitude Altitude Speed Heading
2026-05-08 13:37 62.06618 -7.27978 286 ft 0 kts 231°
2026-05-08 13:43 62.06614 -7.27988 287 ft 1 kts 231°
2026-05-08 13:43 62.06605 -7.28012 288 ft 3 kts 231°
2026-05-08 13:43 62.06581 -7.28068 288 ft 6 kts 219°
2026-05-08 13:43 62.06535 -7.28129 291 ft 8 kts 209°
2026-05-08 13:44 62.06479 -7.28151 294 ft 7 kts 153°
2026-05-08 13:44 62.06448 -7.28067 298 ft 7 kts 121°
2026-05-08 13:44 62.06422 -7.27968 301 ft 8 kts 117°
2026-05-08 13:44 62.06387 -7.27822 300 ft 14 kts 117°
2026-05-08 13:45 62.06363 -7.27723 299 ft 5 kts 117°
2026-05-08 13:45 62.06334 -7.27602 298 ft 12 kts 117°
2026-05-08 13:45 62.06284 -7.27393 295 ft 19 kts 117°
2026-05-08 13:45 62.06215 -7.27115 285 ft 10 kts 120°
2026-05-08 13:46 62.06157 -7.26894 272 ft 24 kts 119°
2026-05-08 13:46 62.06063 -7.26523 237 ft 22 kts 119°
2026-05-08 13:46 62.06003 -7.26288 211 ft 24 kts 119°
2026-05-08 13:46 62.05927 -7.26016 177 ft 5 kts 93°
2026-05-08 13:47 62.05970 -7.26019 175 ft 3 kts 258°
2026-05-08 13:47 62.05970 -7.26020 175 ft 0 kts 248°
2026-05-08 13:48 62.05969 -7.26023 176 ft 0 kts 248°
2026-05-08 13:48 62.05969 -7.26027 176 ft 0 kts 248°
2026-05-08 13:48 62.05968 -7.26030 177 ft 0 kts 248°
2026-05-08 13:48 62.05967 -7.26034 177 ft 0 kts 248°
2026-05-08 13:49 62.05967 -7.26037 178 ft 0 kts 248°
2026-05-08 13:49 62.05966 -7.26042 179 ft 0 kts 247°
2026-05-08 13:49 62.05963 -7.26059 181 ft 2 kts 247°
2026-05-08 13:49 62.05971 -7.26131 191 ft 27 kts 291°
2026-05-08 13:50 62.06240 -7.27224 289 ft 132 kts 298°
2026-05-08 13:50 62.06749 -7.29199 607 ft 158 kts 300°
2026-05-08 13:50 62.07282 -7.31337 1023 ft 164 kts 295°
2026-05-08 13:50 62.07673 -7.33553 1575 ft 162 kts 286°
2026-05-08 13:51 62.07916 -7.35889 2246 ft 164 kts 279°
2026-05-08 13:51 62.08030 -7.38302 2934 ft 166 kts 273°
2026-05-08 13:51 62.08052 -7.40751 3598 ft 171 kts 274°
2026-05-08 13:51 62.08271 -7.43415 4030 ft 194 kts 285°
2026-05-08 13:52 62.08692 -7.46205 4656 ft 210 kts 285°
2026-05-08 13:52 62.08815 -7.49422 5301 ft 228 kts 263°
2026-05-08 13:52 62.08396 -7.52706 6237 ft 233 kts 248°
2026-05-08 13:52 62.07647 -7.55735 7168 ft 237 kts 237°
2026-05-08 13:53 62.06616 -7.58444 8094 ft 241 kts 224°
2026-05-08 13:53 62.05306 -7.60607 9001 ft 244 kts 211°
2026-05-08 13:53 62.03757 -7.62056 9896 ft 248 kts 197°
2026-05-08 13:53 62.02070 -7.62678 10769 ft 251 kts 183°
2026-05-08 13:54 62.00325 -7.62416 11633 ft 255 kts 169°
2026-05-08 13:54 61.98640 -7.61236 12480 ft 259 kts 154°
2026-05-08 13:54 61.97138 -7.59186 13303 ft 262 kts 140°
2026-05-08 13:54 61.95908 -7.56340 14114 ft 266 kts 125°
2026-05-08 13:55 61.95044 -7.52853 14914 ft 270 kts 110°
2026-05-08 13:55 61.94624 -7.48982 15681 ft 274 kts 97°
2026-05-08 13:55 61.94218 -7.40247 16423 ft 315 kts 96°
2026-05-08 13:56 61.94002 -7.35460 16863 ft 331 kts 96°
2026-05-08 13:56 61.93781 -7.30596 17589 ft 336 kts 96°
2026-05-08 13:56 61.93555 -7.25654 18333 ft 340 kts 96°
2026-05-08 13:56 61.93322 -7.20608 19071 ft 345 kts 96°
2026-05-08 13:57 61.93084 -7.15489 19794 ft 349 kts 96°
2026-05-08 13:57 61.92843 -7.10358 20494 ft 353 kts 96°
2026-05-08 13:57 61.92596 -7.05133 21181 ft 358 kts 96°
2026-05-08 13:57 61.92347 -6.99894 21842 ft 362 kts 96°
2026-05-08 13:58 61.92090 -6.94543 22494 ft 366 kts 96°
2026-05-08 13:58 61.91829 -6.89163 23124 ft 370 kts 96°
2026-05-08 13:58 61.91563 -6.83718 23740 ft 374 kts 96°
2026-05-08 13:58 61.91293 -6.78218 24340 ft 378 kts 96°
2026-05-08 13:59 61.91016 -6.72652 24927 ft 383 kts 96°
2026-05-08 13:59 61.90723 -6.67019 25499 ft 387 kts 99°
2026-05-08 13:59 61.89843 -6.61651 26019 ft 390 kts 121°
2026-05-08 13:59 61.88109 -6.57296 26539 ft 394 kts 139°
2026-05-08 14:00 61.85904 -6.53870 27065 ft 398 kts 146°
2026-05-08 14:00 61.83555 -6.50667 27584 ft 402 kts 147°
2026-05-08 14:00 61.81212 -6.47543 28090 ft 406 kts 147°
2026-05-08 14:00 61.78833 -6.44273 28592 ft 409 kts 146°
2026-05-08 14:01 61.76435 -6.40959 29082 ft 413 kts 146°
2026-05-08 14:01 61.74046 -6.37665 29554 ft 417 kts 146°
2026-05-08 14:01 61.71623 -6.34332 30018 ft 420 kts 147°
2026-05-08 14:01 61.69139 -6.30923 30479 ft 424 kts 147°
2026-05-08 14:02 61.66665 -6.27536 30926 ft 428 kts 147°
2026-05-08 14:02 61.64175 -6.24134 31415 ft 430 kts 147°
2026-05-08 14:02 61.61704 -6.20763 31953 ft 430 kts 147°
2026-05-08 14:02 61.59204 -6.17360 32505 ft 430 kts 147°
2026-05-08 14:03 61.56689 -6.13942 33051 ft 430 kts 147°
2026-05-08 14:03 61.54216 -6.10585 33575 ft 429 kts 147°
2026-05-08 14:03 61.51707 -6.07187 34092 ft 429 kts 147°
2026-05-08 14:03 61.49221 -6.03824 34590 ft 429 kts 147°
2026-05-08 14:04 61.46728 -6.00457 34974 ft 431 kts 147°
2026-05-08 14:04 61.41583 -5.93527 34999 ft 444 kts 147°
2026-05-08 14:05 61.36438 -5.86619 34999 ft 441 kts 147°
2026-05-08 14:05 61.31276 -5.79710 35000 ft 442 kts 147°
2026-05-08 14:06 61.26117 -5.72830 34999 ft 442 kts 147°
2026-05-08 14:06 61.20969 -5.65988 34999 ft 442 kts 147°
2026-05-08 14:07 61.15823 -5.59171 35000 ft 442 kts 147°
2026-05-08 14:07 61.10643 -5.52332 35000 ft 442 kts 147°
2026-05-08 14:08 61.05489 -5.45552 34999 ft 442 kts 147°
2026-05-08 14:08 61.00324 -5.38779 34999 ft 442 kts 147°
2026-05-08 14:09 60.95136 -5.32001 35000 ft 442 kts 148°
2026-05-08 14:09 60.89977 -5.25282 35000 ft 442 kts 148°
2026-05-08 14:10 60.84788 -5.18549 35000 ft 442 kts 148°
2026-05-08 14:10 60.79597 -5.11836 35000 ft 442 kts 148°
2026-05-08 14:11 60.74431 -5.05180 35000 ft 442 kts 148°
2026-05-08 14:11 60.69237 -4.98511 35000 ft 442 kts 148°
2026-05-08 14:12 60.64042 -4.91864 35000 ft 442 kts 148°
2026-05-08 14:12 60.58842 -4.85234 34999 ft 442 kts 148°
2026-05-08 14:13 60.53673 -4.78667 35000 ft 442 kts 148°
2026-05-08 14:13 60.48461 -4.72069 34999 ft 442 kts 148°
2026-05-08 14:14 60.43256 -4.65504 35000 ft 442 kts 148°
2026-05-08 14:14 60.38084 -4.59004 34999 ft 442 kts 148°
2026-05-08 14:15 60.32847 -4.52447 35000 ft 442 kts 148°
2026-05-08 14:15 60.27670 -4.45988 35000 ft 442 kts 148°
2026-05-08 14:16 60.22439 -4.39486 35000 ft 442 kts 148°
2026-05-08 14:16 60.17242 -4.33050 35000 ft 442 kts 149°
2026-05-08 14:17 60.12011 -4.26595 34999 ft 442 kts 149°
2026-05-08 14:17 60.06776 -4.20161 35000 ft 442 kts 149°
2026-05-08 14:18 60.01569 -4.13784 35000 ft 442 kts 149°
2026-05-08 14:18 59.96334 -4.07399 35000 ft 442 kts 149°
2026-05-08 14:19 59.91113 -4.01053 34999 ft 442 kts 149°
2026-05-08 14:19 59.85870 -3.94705 35000 ft 442 kts 148°
2026-05-08 14:20 59.80627 -3.88381 35000 ft 442 kts 148°
2026-05-08 14:20 59.75399 -3.82096 35000 ft 442 kts 148°
2026-05-08 14:21 59.70144 -3.75805 35000 ft 442 kts 148°
2026-05-08 14:21 59.64914 -3.69565 35000 ft 442 kts 148°
2026-05-08 14:22 59.59653 -3.63313 34999 ft 442 kts 148°
2026-05-08 14:22 59.57030 -3.60203 34542 ft 447 kts 148°
2026-05-08 14:22 59.54370 -3.57057 34044 ft 444 kts 148°
2026-05-08 14:22 59.51763 -3.53979 33549 ft 440 kts 148°
2026-05-08 14:23 59.49122 -3.50866 33045 ft 439 kts 148°
2026-05-08 14:23 59.46534 -3.47821 32553 ft 439 kts 148°
2026-05-08 14:23 59.43898 -3.44726 32052 ft 440 kts 148°
2026-05-08 14:23 59.41262 -3.41637 31552 ft 441 kts 149°
2026-05-08 14:24 59.38653 -3.38584 31056 ft 441 kts 149°
2026-05-08 14:24 59.36012 -3.35500 30555 ft 441 kts 149°
2026-05-08 14:24 59.33340 -3.32387 30049 ft 442 kts 149°
2026-05-08 14:24 59.30716 -3.29334 29552 ft 442 kts 149°
2026-05-08 14:25 59.28070 -3.26262 29051 ft 442 kts 149°
2026-05-08 14:25 59.25417 -3.23189 28543 ft 438 kts 149°
2026-05-08 14:25 59.22813 -3.20177 28041 ft 433 kts 149°
2026-05-08 14:25 59.20226 -3.17190 27537 ft 429 kts 149°
2026-05-08 14:26 59.17637 -3.14208 27029 ft 425 kts 149°
2026-05-08 14:26 59.15105 -3.11295 26528 ft 421 kts 149°
2026-05-08 14:26 59.12610 -3.08431 26029 ft 418 kts 149°
2026-05-08 14:26 59.10111 -3.05568 25526 ft 414 kts 149°
2026-05-08 14:27 59.07612 -3.02708 25018 ft 410 kts 149°
2026-05-08 14:27 59.05416 -2.99283 24527 ft 405 kts 129°
2026-05-08 14:27 59.03977 -2.94637 24067 ft 403 kts 111°
2026-05-08 14:27 59.03249 -2.89398 23582 ft 400 kts 97°
2026-05-08 14:28 59.03201 -2.84109 23101 ft 397 kts 83°
2026-05-08 14:28 59.03860 -2.78913 22612 ft 393 kts 68°
2026-05-08 14:28 59.05186 -2.74336 22129 ft 389 kts 52°
2026-05-08 14:28 59.07049 -2.70545 21649 ft 386 kts 42°
2026-05-08 14:29 59.09046 -2.67095 21143 ft 383 kts 41°
2026-05-08 14:29 59.11027 -2.63726 20645 ft 380 kts 41°
2026-05-08 14:29 59.13032 -2.60314 20137 ft 377 kts 41°
2026-05-08 14:29 59.14983 -2.56991 19638 ft 373 kts 41°
2026-05-08 14:30 59.16909 -2.53701 19142 ft 370 kts 41°
2026-05-08 14:30 59.18844 -2.50391 18638 ft 367 kts 41°
2026-05-08 14:30 59.20742 -2.47138 18141 ft 365 kts 41°
2026-05-08 14:30 59.22638 -2.43884 17640 ft 362 kts 41°
2026-05-08 14:31 59.24524 -2.40640 17138 ft 359 kts 41°
2026-05-08 14:31 59.26385 -2.37435 16638 ft 357 kts 41°
2026-05-08 14:31 59.28247 -2.34222 16134 ft 354 kts 41°
2026-05-08 14:32 59.31901 -2.27903 15135 ft 349 kts 41°
2026-05-08 14:32 59.33712 -2.24763 14634 ft 347 kts 41°
2026-05-08 14:32 59.35509 -2.21642 14133 ft 344 kts 41°
2026-05-08 14:32 59.37281 -2.18561 13639 ft 344 kts 41°
2026-05-08 14:33 59.39055 -2.15471 13140 ft 342 kts 41°
2026-05-08 14:33 59.40826 -2.12382 12638 ft 339 kts 41°
2026-05-08 14:33 59.42586 -2.09306 12135 ft 337 kts 41°
2026-05-08 14:33 59.44322 -2.06269 11636 ft 334 kts 41°
2026-05-08 14:34 59.46027 -2.03281 11131 ft 323 kts 41°
2026-05-08 14:34 59.47643 -2.00446 11002 ft 300 kts 41°
2026-05-08 14:34 59.49141 -1.97813 10992 ft 279 kts 41°
2026-05-08 14:34 59.50552 -1.95331 10806 ft 269 kts 41°
2026-05-08 14:35 59.51935 -1.92895 10435 ft 267 kts 41°
2026-05-08 14:35 59.53312 -1.90466 10060 ft 265 kts 41°
2026-05-08 14:35 59.54676 -1.88057 9686 ft 263 kts 41°
2026-05-08 14:35 59.56036 -1.85654 9310 ft 262 kts 41°
2026-05-08 14:36 59.57384 -1.83269 8935 ft 260 kts 41°
2026-05-08 14:36 59.58714 -1.80912 8563 ft 259 kts 41°
2026-05-08 14:36 59.60046 -1.78550 8189 ft 258 kts 41°
2026-05-08 14:36 59.61364 -1.76210 7816 ft 256 kts 41°
2026-05-08 14:37 59.62688 -1.73856 7440 ft 255 kts 41°
2026-05-08 14:37 59.63997 -1.71527 7066 ft 254 kts 41°
2026-05-08 14:37 59.65306 -1.69194 6690 ft 253 kts 41°
2026-05-08 14:37 59.66611 -1.66866 6314 ft 252 kts 41°
2026-05-08 14:38 59.67900 -1.64565 5941 ft 250 kts 41°
2026-05-08 14:38 59.69190 -1.62260 5565 ft 249 kts 41°
2026-05-08 14:38 59.70467 -1.59976 5191 ft 248 kts 41°
2026-05-08 14:38 59.71743 -1.57689 4816 ft 247 kts 41°
2026-05-08 14:39 59.72999 -1.55437 4528 ft 242 kts 41°
2026-05-08 14:39 59.74235 -1.53217 4273 ft 237 kts 41°
2026-05-08 14:39 59.75440 -1.51042 4022 ft 234 kts 42°
2026-05-08 14:39 59.76632 -1.48883 3770 ft 231 kts 42°
2026-05-08 14:40 59.77812 -1.46746 3518 ft 228 kts 42°
2026-05-08 14:40 59.78983 -1.44626 3267 ft 226 kts 42°
2026-05-08 14:40 59.80147 -1.42514 3015 ft 225 kts 42°
2026-05-08 14:40 59.81294 -1.40435 2765 ft 223 kts 42°
2026-05-08 14:41 59.82436 -1.38361 2534 ft 222 kts 42°
2026-05-08 14:41 59.83565 -1.36311 2501 ft 221 kts 42°
2026-05-08 14:41 59.84688 -1.34270 2496 ft 215 kts 43°
2026-05-08 14:41 59.85784 -1.32277 2508 ft 209 kts 43°
2026-05-08 14:42 59.86830 -1.30373 2513 ft 196 kts 43°
2026-05-08 14:42 59.87812 -1.28586 2356 ft 189 kts 43°
2026-05-08 14:42 59.88765 -1.26851 2239 ft 177 kts 43°
2026-05-08 14:42 59.89640 -1.25256 2108 ft 166 kts 43°
2026-05-08 14:43 59.90449 -1.23781 2085 ft 146 kts 43°
2026-05-08 14:43 59.91159 -1.22486 2096 ft 138 kts 43°
2026-05-08 14:43 59.91860 -1.21206 2102 ft 136 kts 43°
2026-05-08 14:43 59.92551 -1.19894 2098 ft 136 kts 44°
2026-05-08 14:44 59.93230 -1.18566 2100 ft 136 kts 44°
2026-05-08 14:44 59.93910 -1.17235 2100 ft 136 kts 44°
2026-05-08 14:44 59.94591 -1.15899 2100 ft 136 kts 44°
2026-05-08 14:44 59.95273 -1.14563 2100 ft 136 kts 44°
2026-05-08 14:45 59.95941 -1.13251 2099 ft 136 kts 45°
2026-05-08 14:45 59.96381 -1.11602 2066 ft 137 kts 83°
2026-05-08 14:45 59.96285 -1.09719 1961 ft 137 kts 110°
2026-05-08 14:45 59.95732 -1.08211 1835 ft 135 kts 141°
2026-05-08 14:46 59.94952 -1.07170 1720 ft 136 kts 149°
2026-05-08 14:46 59.94127 -1.06284 1589 ft 135 kts 159°
2026-05-08 14:46 59.93228 -1.05710 1503 ft 134 kts 164°
2026-05-08 14:46 59.92321 -1.05208 1504 ft 135 kts 166°
2026-05-08 14:47 59.91391 -1.05121 1498 ft 135 kts 190°
2026-05-08 14:47 59.90546 -1.05867 1489 ft 135 kts 220°
2026-05-08 14:47 59.89932 -1.07282 1466 ft 136 kts 236°
2026-05-08 14:47 59.89507 -1.08962 1381 ft 135 kts 252°
2026-05-08 14:48 59.89313 -1.10779 1309 ft 135 kts 261°
2026-05-08 14:48 59.89174 -1.12634 1233 ft 135 kts 262°
2026-05-08 14:48 59.89028 -1.14484 1136 ft 135 kts 260°
2026-05-08 14:48 59.88876 -1.16327 1036 ft 134 kts 261°
2026-05-08 14:49 59.88731 -1.18165 922 ft 135 kts 261°
2026-05-08 14:49 59.88610 -1.19996 752 ft 134 kts 263°
2026-05-08 14:49 59.88511 -1.21849 575 ft 133 kts 265°
2026-05-08 14:49 59.88445 -1.23670 401 ft 133 kts 266°
2026-05-08 14:50 59.88377 -1.25529 196 ft 134 kts 265°
2026-05-08 14:50 59.88265 -1.27341 43 ft 131 kts 263°
2026-05-08 14:50 59.88169 -1.29028 20 ft 90 kts 263°
2026-05-08 14:50 59.88128 -1.29734 16 ft 29 kts 263°
2026-05-08 14:51 59.88069 -1.29884 18 ft 14 kts 152°
2026-05-08 14:51 59.87971 -1.29723 16 ft 21 kts 142°
2026-05-08 14:51 59.87898 -1.29505 14 ft 17 kts 67°
2026-05-08 14:51 59.87943 -1.29319 17 ft 11 kts 92°
2026-05-08 14:52 59.87940 -1.29289 17 ft 0 kts 113°
2026-05-08 14:52 59.87940 -1.29290 17 ft 0 kts 113°